星链-36433(STARLINK-36433)

导读 | 豆包AI

STARLINK-36433是美国太空探索技术公司SpaceX星链星座的一员,于2026年1月18日发射入轨。星链项目旨在构建全球卫星互联网星座,为全球偏远地区、海洋及航空等场景提供低延迟高速互联网接入服务。该卫星依托星链星座组网,进一步完善了星链星座的全球覆盖能力与服务性能,助力其全球互联网服务布局。

基本信息
目录编号:
67501
目录名称:
STARLINK-36433
国际标识:
2026-012J
轨道中心:
EARTH
卫星名称:
星链-36433
卫星全名:
星链-36433(STARLINK-36433)
卫星状态:
在轨 (已飞行76 天)
发射日期:
2026-01-18 UTC
国别 :
美国 (US)
星等 :
--
轨道信息
数据来源 国际轨道数据
星历时间: 2026-04-03T14:50:40+0800
18小时前
查看轨道信息
半长轴: 6861.031km
偏心率: 0.0001739
轨道倾角: 43.003°
近地点辐角 198.164°
升交点赤经 175.473°
平近点角 161.915°
近地点: 481.7km
远地点: 484.088km
周期: 94.264分钟
每日圈数: 15.276321
详细信息
固有亮度:
5
最大亮度:
2.5
卫星平台:
Starlink V1.0
覆盖范围:
全球
运营商:
太空探索技术公司
运营商所在国:
美国
制造商(研发单位):
太空探索技术公司
制造商所在国:
美国
使用方式:
暂无
卫星简介
Starlink 计划是 SpaceX 推出的全球卫星互联网项目,通过发射低轨道卫星,为全球尤其是偏远地区提供高速、低延迟的互联网服务。自 2019 年起,Starlink 已部署数千颗卫星,旨在缩小全球数字鸿沟,推动互联网普及。该项目还为军事、航空等行业提供通信支持,带来广泛经济效益。
2D轨道图
3D轨道图
轨道高度分析图
轨道倾角分析图
轨道综合分析图
查看轨道综合分析图